Simultaneous Nadir Overpasses (SNOs) Predictions

Prediction of SNOs between GOES-17 and METOP-B Satellite Orbit:

Table of predicted SNOs for the next 14.0 days since TLE Epoch: 3/5/2022
Index Date Time (GOES-17) GOES-17 Lat,Lon METOP-B Lat,Lon Distance(km) Time Diff (sec)
1 03/06/2022 06:51:01 -0.04,-137.23 -0.62,-139.76 289.08 80
2 03/07/2022 06:27:42 -0.03,-137.22 0.52,-134.77 279.74 80
3 03/08/2022 18:49:13 0.04,-137.23 0.50,-139.33 240.10 80
4 03/09/2022 18:25:54 0.03,-137.22 -0.63,-134.34 328.29 80
5 03/11/2022 06:47:33 -0.03,-137.20 -0.40,-138.94 197.45 80
6 03/12/2022 06:24:13 -0.03,-137.19 0.67,-133.94 370.52 80
7 03/13/2022 18:43:04 0.03,-137.18 0.34,-138.50 150.72 80
8 03/14/2022 18:25:04 0.03,-137.17 -0.79,-133.51 416.97 80
9 03/16/2022 06:44:04 -0.03,-137.14 -0.23,-138.10 109.76 80
10 03/17/2022 06:20:43 -0.03,-137.12 0.85,-133.10 457.67 80
11 03/18/2022 18:39:35 0.03,-137.10 0.17,-137.67 64.53 80
